Regional Weather Roundup
Issued by NWS Austin/San Antonio, TX

Home | Current Version | Previous Version | Text Only | Print | Product List | Glossary On
Versions: 1 2 3 4 5 6 7 8 9 10 11 12 13 14 15 16 17 18 19 20 21 22 23 24 25 26 27 28 29 30 31 32 33 34 35 36 37 38 39 40 41 42 43 44 45 46 47 48 49 50
000
ASUS44 KEWX 260812
RWREWX
SOUTH TEXAS REGIONAL WEATHER ROUNDUP
NATIONAL WEATHER SERVICE AUSTIN/SAN ANTONIO TX
300 AM CDT FRI MAY 26 2017

NOTE: "FAIR" INDICATED FEW OR NO CLOUDS BELOW 12,000 FEET WITH NO
SIGNIFICANT WEATHER AND/OR OBSTRUCTIONS TO VISIBILITY.

* - THESE STATIONS ARE NOT NWS OR FAA STATIONS...AND ARE NOT SUBJECT
    TO NWS AND FAA QUALITY CONTROL.

TXZ171-172-183>190-260900-
TEXAS HILL COUNTRY AND EDWARDS PLATEAU

CITY           SKY/WX    TMP DP  RH WIND       PRES   REMARKS
JUNCTION       MOCLDY    76  70  82 S3        29.79R
*LLANO         CLOUDY    75  72  88 S6        29.80S
BURNET         CLOUDY    75  70  84 S12G22    29.80R
*HORSESHOE BAY NOT AVBL
*KERRVILLE     CLOUDY    74  71  91 S14G20    29.81S
*FREDERICKSBRG CLOUDY    74  69  85 S13G18    29.80S
*ROCKSPRINGS   CLOUDY    73  72  94 S17G24    29.82S
*BOERNE STAGE  CLOUDY    73  70  88 S10       29.81F
*CASTROVILLE   CLOUDY    77  71  81 S6        29.80S
HONDO          CLOUDY    77  73  87 SE9       29.78F
*UVALDE        CLEAR     73  72  96 E7        29.77F
DEL RIO        CLEAR     76  70  82 E10       29.72R
LAUGHLIN AFB   CLEAR     75  72  89 SE9       29.73S
CARRIZO SPRGS  MOCLDY    79  72  78 SE7       29.73S
*EAGLE PASS    NOT AVBL
$$

TXZ173-191>194-202-209-217>225-228-260900-
CENTRAL AND SOUTH CENTRAL TEXAS

CITY           SKY/WX    TMP DP  RH WIND       PRES   REMARKS
GEORGETOWN     CLOUDY    75  70  83 S15       29.77R
AUSTIN/BERGSTM CLOUDY    78  72  81 S15G23    29.77S
AUSTIN/MABRY   CLOUDY    75  72  90 VRB6      29.78S
*AUSTIN/EXEC     N/A     75  73  94 S15       29.77
*LAGO VISTA    DRIZZLE   74  73  93 S7G20     29.80R
SAN MARCOS     CLOUDY    75  72  88 S17G24    29.79S
NEW BRAUNFELS  CLOUDY    77  71  82 S15       29.78R
RANDOLPH AFB   CLOUDY    76  75  96 S10       29.79R
PT SAN ANTONIO CLOUDY    77  72  84 S10       29.76F
SAN ANTONIO    CLOUDY    77  71  82 S12       29.79S
STINSON FIELD  CLOUDY    78  72  81 S8        29.76F
*LA GRANGE     CLOUDY    79  73  80 S12G18    29.77S
*GIDDINGS      CLOUDY    76  69  79 S8        29.79S
*GONZALES      CLOUDY    78  74  86 S10       29.78S
$$

TXZ163>164-176>182-195>201-210>213-226-227-235-260900-
SOUTHEAST TEXAS

CITY           SKY/WX    TMP DP  RH WIND       PRES   REMARKS
COLLEGE STN    CLOUDY    74  69  85 S10       29.79R
*BRYAN         CLOUDY    73  69  87 S10G17    29.80R
*CALDWELL      NOT AVBL
*CROCKETT      PTCLDY    68  64  88 S9        29.81S
*BRENHAM       CLOUDY    77  71  81 S12       29.79S
HUNTSVILLE     PTCLDY    73  66  78 S12G18    29.79S
CONROE         PTCLDY    71  67  87 S8        29.80S
HOUSTON BUSH   PTCLDY    74  68  81 S10       29.81R
HOUSTON HOBBY  PTCLDY    74  69  85 S10       29.80S
*HOUSTON SW AP MOCLDY    70  68  92 CALM      29.81S
PEARLAND       CLEAR     77  70  79 S12G21    29.81F
HOUSTON HOOKS  CLOUDY    74  69  85 S10G17    29.80S
ELLINGTON FLD  PTCLDY    75  72  88 S9        29.82S
SUGAR LAND     CLOUDY    75  71  87 S9        29.80S
*HOUSTON EXEC  CLOUDY    72  68  88 S9        29.81F FOG
*CLEVELAND MUN CLEAR     67  65  94 CALM      29.82S
*WHARTON       CLOUDY    76  69  79 S13       29.81S
*COLUMBUS      CLOUDY    76  71  83 S10G18    29.81R
*EAGLE LAKE    CLOUDY    77  73  87 S12G17    29.80R
$$

TXZ214>216-236>238-260900-
THE UPPER TEXAS COAST

CITY           SKY/WX    TMP DP  RH WIND       PRES   REMARKS
*ORANGE        PTCLDY    75  69  81 S14G21    29.85S
PORT ARTHUR    PTCLDY    73  68  84 S13G21    29.82F
GALVESTON      PTCLDY    78  72  81 S24G30    29.83S
ANGLETON       PTCLDY    77  72  84 S16       29.81S
*BAY CITY      CLOUDY    78  73  83 S12       29.80F
PALACIOS       MOCLDY    77  72  84 S18G30    29.79F
$$

TXZ229>234-239>247-260900-
TEXAS COASTAL BEND AND RIO GRANDE PLAINS

CITY           SKY/WX    TMP DP  RH WIND       PRES   REMARKS
VICTORIA       CLOUDY    79  72  79 S13G22    29.79R
*BEEVILLE      CLOUDY    78  78 100 S13       29.77S
ROCKPORT       MOCLDY    80  73  79 S10G32    29.77F
*PORT ARANSAS  MOCLDY    78  74  86 S23G30    29.77F
*PORT LAVACA   CLOUDY    77  74  92 S14       29.79S
*INGLESIDE     CLOUDY    80  75  84 S17G29    29.77F
CORPUS CHRISTI MOCLDY    79  75  87 S18G25    29.76F
CORPUS NAS     CLOUDY    81  76  84 S17G33    29.76F
*ROBSTOWN      CLOUDY    80  74  84 S16G24    29.77S
ALICE          CLOUDY    78  73  84 S17G30    29.75F
KINGSVILLE NAS CLOUDY    79  76  90 S20G30    29.76S
COTULLA        MOCLDY    79  72  79 SE6       29.75R
*FAITH RANCH   MOCLDY    79  73  83 SE12      29.74R
LAREDO         CLOUDY    78  73  84 SE16      29.72S
$$

TXZ248>255-260900-
DEEP SOUTH TEXAS

CITY           SKY/WX    TMP DP  RH WIND       PRES   REMARKS
BROWNSVILLE    PTCLDY    81  75  82 SE16      29.79F
PORT ISABEL    PTCLDY    80  75  84 S20G26    29.77F
*SOUTH PADRE   NOT AVBL
HARLINGEN      PTCLDY    79  76  90 S20G28    29.76F
*HEBBRONVILLE  CLOUDY    78  72  81 S17       29.76S
MCALLEN        CLOUDY    82  75  79 SE16G24   29.77F
*WESLACO       MOCLDY    79  74  86 S15       29.76F
FALFURRIAS     CLOUDY    78  74  85 SE12G17   29.76S
EDINBURG       CLOUDY    81  74  80 SE13G18   29.76F
*ZAPATA        CLOUDY    78  72  81 SE12G21   29.72S
$$

TXZ213>215-236>238-242>244-246-247-251-254-255-260900-
CMAN STATIONS

STATION/POSITION TIME  TEMP    WIND        PRES    WAVE
                       AIR SEA DIR/SP/G            HT/PER
                 (UTC) (F)     (DEG/KT/KT) (MB)    (FT/S)
SABINE PASS      0748   76 80  180/ 17/ 25 1011.6
SEA RIM ST PARK  0800   76     180/ 18/ 23 1010.8
NORTH JETTY/GLS  0742      79  170/ 22/ 26 1009.3
EAGLE POINT      0748   77 77  190/ 22/ 26 1009.3
MORGANS POINT    0748   76 79  180/ 11/ 16 1009.3
MISSION/ARANSAS  0700   79                 1009.0
PORT O`CONNOR    0748   78     160/ 22/ 26 1008.5
PORT ARANSAS     0800   79 79  150/ 24/ 28 1007.8
MALAQUITE BEACH  0748   80 80  150/ 25/ 28 1008.5
BAFFIN BAY       0748   79 79              1008.3
PORT ISABEL      0748   80 81  150/ 18/ 23 1008.7
$$




USA.gov is the U.S. government's official web portal to all federal, state and local government web resources and services.